Regional Weather Roundup
Issued by NWS

Home | Current Version | Previous Version | Graphics & Text | Print | Product List | Glossary On
Versions: 1 2 3 4 5 6 7 8 9 10 11 12 13 14 15 16 17 18 19 20 21 22 23 24 25 26 27 28 29 30 31 32 33 34 35 36 37 38 39 40 41 42 43 44 45 46 47 48 49 50
000
ASUS43 KFSD 251110
RWRSD

WEATHER ROUNDUP FOR SOUTH DAKOTA
NATIONAL WEATHER SERVICE SIOUX FALLS SD
600 AM CDT WED MAY 25 2016

NOTE: "FAIR" INDICATES FEW OR NO CLOUDS BELOW 12,000 FEET WITH NO
SIGNIFICANT WEATHER AND/OR OBSTRUCTIONS TO VISIBILITY.


SDZ001>005-009-010-012>017-251200-
NORTHWEST AND NORTH CENTRAL SOUTH DAKOTA

CITY           SKY/WX    TMP DP  RH WIND       PRES   REMARKS
BUFFALO          N/A     52  47  83 CALM      29.77S
FAITH            N/A     50  45  83 NE7       29.80R
MOBRIDGE       CLOUDY    58  52  80 NE17      29.75F
$$

SDZ012>016-024>037-041>051-057-063-072>074-251200-
SOUTHWEST AND SOUTH CENTRAL SOUTH DAKOTA

CITY           SKY/WX    TMP DP  RH WIND       PRES   REMARKS
RAPID CTY ARPT CLEAR     44  42  93 W5        29.85R
PIERRE         CLOUDY    55  54  96 SW7       29.75R
CUSTER         CLOUDY    40  38  93 W3        29.90R
ELLSWORTH AFB  CLEAR     46  46 100 NW5       29.84R
PHILIP         PTCLDY    50  49  96 W7        29.79S
PINE RIDGE     CLOUDY    49  46  90 W3        29.86R
WINNER         CLOUDY    59  56  89 S3        29.79F
$$

SDZ004>011-016>023-039-040-251200-
NORTHEAST SOUTH DAKOTA

CITY           SKY/WX    TMP DP  RH WIND       PRES   REMARKS
ABERDEEN       CLOUDY    61  56  83 N9        29.76F
WATERTOWN      CLOUDY    64  60  87 E6        29.78S
BROOKINGS      RAIN      60  58  92 S12       29.80R
SISSETON         N/A     59  51  75 CALM      29.78S
$$

SDZ017-020-022-023-036>040-048>070-251200-
SOUTHEAST SOUTH DAKOTA

CITY           SKY/WX    TMP DP  RH WIND       PRES   REMARKS
SIOUX FALLS    CLOUDY    60  58  92 E8        29.79F
HURON          LGT RAIN  60  59  96 N15       29.73S
CHAMBERLAIN    CLOUDY    60  59  99 SW9       29.79R
MITCHELL       CLOUDY    61  59  93 S13       29.75R
YANKTON        CLOUDY    59  55  88 S6        29.80R
$$

ABBREVIATIONS USED IN REMARKS
   TC - TEMPERATURE IN CELSIUS
  WCI - WIND CHILL INDEX
   HX - HEAT INDEX
  VSB - VISIBILITY





USA.gov is the U.S. government's official web portal to all federal, state and local government web resources and services.